Latest Weather Observations for Thredbo Top Station

IDN60901

Issued at 8:35 pm EDT Friday 30 January 2015 (issued every 10 minutes, with the page automatically refreshed every 10 minutes)

About weather observations | Map of Canberra area stations | Latest observations for Canberra area | Other Formats
Station Details ID: 071032 Name: THREDBO AWS Lat: -36.49 Lon: 148.29 Height: 1957.0 m
Data from the previous 72 hours. | See also: Recent months at Thredbo Top Station
Date/Time
EDT
Tmp

°C
App
Tmp
°C
Dew
Point
°C
Rel
Hum
%
Delta-T

°C
Wind Press
QNH
hPa
Press
MSL
hPa
Rain
since
9 am
mm
Dir
 
Spd
km/h
Gust
km/h
Spd
kts
Gust
kts
30/08:30pm 2.7 -3.0 2.6 99 0.0 S 22 32 12 17 1012.0 1008.0 2.2
30/08:00pm 3.0 -2.3 2.9 99 0.0 S 20 28 11 15 1011.9 1007.9 2.0
30/07:30pm 3.4 -2.6 3.3 99 0.0 S 24 35 13 19 1011.7 1007.7 1.8
30/07:00pm 3.6 -1.6 3.5 99 0.0 S 20 30 11 16 1011.4 1007.3 1.8
30/06:36pm 3.6 -3.1 3.5 99 0.0 S 28 46 15 25 1011.4 1007.3 1.8
30/06:30pm 3.8 -2.5 3.7 99 0.0 S 26 35 14 19 1011.2 1007.2 1.6
30/06:00pm 3.9 -2.4 3.8 99 0.0 S 26 41 14 22 1011.2 1007.2 1.4
30/05:30pm 4.4 -0.7 4.3 99 0.0 S 20 26 11 14 1011.4 1007.3 1.4
30/05:00pm 4.4 -1.4 4.3 99 0.0 S 24 32 13 17 1011.6 1007.6 1.2
30/04:30pm 4.6 -0.8 4.5 99 0.0 S 22 33 12 18 1011.4 1007.3 0.0
30/04:00pm 4.6 -2.3 4.5 99 0.0 S 30 43 16 23 1011.2 1007.2 0.0
30/03:30pm 4.8 -1.7 4.7 99 0.0 SSW 28 41 15 22 1011.8 1007.8 0.0
30/03:00pm 4.2 -2.4 4.1 99 0.0 SSW 28 39 15 21 1011.8 1007.8 0.0
30/02:30pm 4.1 -2.2 4.0 99 0.0 SSW 26 39 14 21 1011.9 1007.9 0.0
30/02:00pm 4.1 -1.8 4.0 99 0.0 SSW 24 39 13 21 1011.9 1007.9 0.0
30/01:30pm 4.5 -2.1 4.4 99 0.0 S 28 46 15 25 1011.8 1007.8 0.0
30/01:17pm 4.5 -2.8 4.4 99 0.0 S 32 50 17 27 1011.9 1007.9 0.0
30/01:00pm 4.2 -2.4 4.1 99 0.0 S 28 39 15 21 1012.2 1008.1 0.0
30/12:30pm 3.9 -3.7 3.8 99 0.0 S 33 54 18 29 1012.2 1008.1 0.0
30/12:06pm 3.2 -4.4 3.1 99 0.0 S 32 50 17 27 1012.5 1008.5 0.0
30/12:00pm 2.9 -4.7 2.8 99 0.0 S 32 41 17 22 1012.5 1008.5 0.0
30/11:53am 2.9 -4.9 2.8 99 0.0 S 33 52 18 28 1012.6 1008.6 0.0
30/11:30am 2.6 -4.3 2.5 99 0.0 S 28 39 15 21 1012.7 1008.7 0.0
30/11:00am 2.4 -3.8 2.3 99 0.0 S 24 39 13 21 1012.8 1008.8 0.0
30/10:30am 1.9 -5.1 1.8 99 0.0 S 28 43 15 23 1013.0 1009.0 0.0
30/10:00am 1.6 -4.7 1.5 99 0.0 S 24 39 13 21 1013.1 1009.1 0.0
30/09:30am 1.1 -4.5 1.0 99 0.0 S 20 35 11 19 1013.2 1009.2 0.0
30/09:00am 0.7 -5.0 0.6 99 0.0 SSE 20 35 11 19 1013.0 1009.0 2.8
30/08:30am 0.3 -5.5 0.2 99 0.0 SSE 20 32 11 17 1013.2 1009.2 2.8
30/08:00am -0.2 -6.8 -0.3 99 0.0 SSE 24 33 13 18 1013.3 1009.3 2.8
30/07:30am 0.1 -6.4 0.0 99 0.0 SSE 24 37 13 20 1013.2 1009.2 2.6
30/07:00am 0.0 -7.3 -0.1 99 0.0 S 28 41 15 22 1013.0 1009.0 2.6
30/06:30am 0.0 -8.1 -0.1 99 0.0 S 32 44 17 24 1013.0 1009.0 2.6
30/06:00am 0.4 -7.6 0.3 99 0.0 S 32 43 17 23 1012.6 1008.6 2.6
30/05:30am 0.6 -5.1 0.5 99 0.0 S 20 32 11 17 1012.5 1008.5 2.6
30/05:00am 0.6 -7.0 0.5 99 0.0 S 30 44 16 24 1012.5 1008.5 2.6
30/04:46am 0.8 -6.4 0.7 99 0.0 S 28 46 15 25 1012.5 1008.5 2.4
30/04:30am 0.7 -6.1 0.6 99 0.0 S 26 35 14 19 1012.6 1008.6 2.4
30/04:00am 0.5 -6.7 0.4 99 0.0 S 28 39 15 21 1013.1 1009.1 2.4
30/03:35am 0.5 -6.7 0.4 99 0.0 S 28 46 15 25 1013.4 1009.4 2.4
30/03:30am 0.5 -6.7 0.4 99 0.0 S 28 37 15 20 1013.4 1009.4 2.4
30/03:00am 0.1 -6.8 0.0 99 0.0 S 26 39 14 21 1013.8 1009.8 2.4
30/02:30am 0.4 -5.7 0.3 99 0.0 S 22 33 12 18 1014.1 1010.1 2.2
30/02:00am 0.4 -5.7 0.3 99 0.0 S 22 41 12 22 1014.6 1010.6 2.2
30/01:30am 0.6 -6.2 0.5 99 0.0 S 26 37 14 20 1014.7 1010.7 2.2
30/01:00am 0.5 -7.1 0.4 99 0.0 S 30 41 16 22 1015.0 1011.1 2.2
30/12:30am 0.4 -7.2 0.3 99 0.0 S 30 50 16 27 1015.5 1011.6 2.2
30/12:20am 0.2 -7.1 0.1 99 0.0 S 28 50 15 27 1015.6 1011.7 2.2
 
Date/Time
EDT
Tmp

°C
App
Tmp
°C
Dew
Point
°C
Rel
Hum
%
Delta-T

°C
Wind Press
QNH
hPa
Press
MSL
hPa
Rain
since
9 am
mm
Dir
 
Spd
km/h
Gust
km/h
Spd
kts
Gust
kts
29/11:38pm 0.4 -6.9 0.3 99 0.0 SSE 28 50 15 27 1016.0 1012.1 2.2
29/11:30pm 0.5 -7.1 0.4 99 0.0 S 30 44 16 24 1016.0 1012.1 2.0
29/11:06pm 1.2 -5.9 1.1 99 0.0 S 28 46 15 25 1016.0 1012.1 2.0
29/11:00pm 1.2 -5.6 1.1 99 0.0 S 26 41 14 22 1015.9 1012.0 2.0
29/10:37pm 1.1 -6.1 1.0 99 0.0 S 28 50 15 27 1016.2 1012.3 2.0
29/10:30pm 1.0 -6.9 0.9 99 0.0 SSE 32 46 17 25 1016.3 1012.4 2.0
29/10:23pm 1.1 -7.4 1.0 99 0.0 S 35 54 19 29 1016.4 1012.5 2.0
29/10:00pm 1.2 -6.7 1.1 99 0.0 SSE 32 43 17 23 1016.4 1012.5 2.0
29/09:37pm 1.2 -6.7 1.1 99 0.0 SSE 32 50 17 27 1016.6 1012.7 1.8
29/09:30pm 1.2 -7.6 1.1 99 0.0 S 37 50 20 27 1016.6 1012.7 1.8
29/09:00pm 1.4 -5.3 1.3 99 0.0 SSE 26 37 14 20 1016.5 1012.6 1.6
29/08:30pm 1.3 -6.6 1.2 99 0.0 S 32 46 17 25 1016.5 1012.6 1.6
29/08:00pm 1.4 -6.7 1.3 99 0.0 S 33 54 18 29 1016.5 1012.6 1.6
29/07:30pm 1.5 -7.3 1.4 99 0.0 S 37 56 20 30 1016.5 1012.6 1.6
29/07:25pm 1.5 -6.5 1.4 99 0.0 SSE 33 56 18 30 1016.5 1012.6 1.6
29/07:00pm 2.1 -6.2 2.0 99 0.0 SSE 35 52 19 28 1016.4 1012.5 1.2
29/06:30pm 2.3 -6.0 2.2 99 0.0 S 35 48 19 26 1015.9 1012.0 1.0
29/06:00pm 2.7 -4.2 2.6 99 0.0 SSE 28 39 15 21 1015.9 1012.0 0.8
29/05:30pm 2.8 -4.5 2.7 99 0.0 S 30 41 16 22 1015.9 1012.0 0.8
29/05:00pm 3.1 -4.5 3.0 99 0.0 S 32 41 17 22 1016.0 1012.1 0.8
29/04:30pm 4.3 -3.2 3.6 95 0.3 S 32 43 17 23 1016.2 1012.3 0.8
29/04:00pm 4.9 -0.9 4.2 95 0.3 S 24 39 13 21 1015.9 1012.0 0.8
29/03:30pm 3.9 -3.2 3.8 99 0.0 S 30 46 16 25 1016.0 1012.1 0.8
29/03:00pm 5.5 -1.3 4.9 96 0.3 S 30 43 16 23 1016.4 1012.5 0.8
29/02:30pm 4.4 -2.6 4.3 99 0.0 S 30 41 16 22 1016.7 1012.8 0.8
29/02:00pm 4.2 -3.2 4.1 99 0.0 S 32 44 17 24 1017.0 1013.1 0.8
29/01:30pm 4.8 -2.5 4.7 99 0.0 S 32 43 17 23 1016.7 1012.8 0.8
29/01:00pm 4.8 -0.2 4.7 99 0.0 S 20 33 11 18 1017.9 1014.0 0.6
29/12:30pm 3.4 -1.7 3.3 99 0.0 SSE 19 28 10 15 1017.9 1014.0 0.6
29/12:00pm 2.5 -2.3 2.4 99 0.0 S 17 28 9 15 1018.1 1014.3 0.4
29/11:30am 3.1 -1.2 3.0 99 0.0 SSE 15 28 8 15 1018.1 1014.3 0.4
29/11:00am 2.2 -3.6 2.1 99 0.0 SSE 22 41 12 22 1018.2 1014.4 0.4
29/10:30am 2.0 -3.9 1.9 99 0.0 SSE 22 32 12 17 1018.2 1014.4 0.4
29/10:00am 1.5 -4.8 1.4 99 0.0 SSE 24 41 13 22 1018.1 1014.3 0.2
29/09:47am 1.3 -5.8 1.2 99 0.0 SSE 28 46 15 25 1018.0 1014.1 0.2
29/09:30am 1.5 -5.6 1.4 99 0.0 SSE 28 41 15 22 1017.9 1014.0 0.2
29/09:00am 1.0 -5.4 0.9 99 0.0 SSE 24 39 13 21 1017.9 1014.0 1.8
29/08:30am 1.0 -5.8 0.9 99 0.0 SSE 26 43 14 23 1017.5 1013.7 1.6
29/08:06am 0.5 -7.1 0.4 99 0.0 SSE 30 50 16 27 1017.4 1013.5 1.6
29/08:00am 0.5 -7.5 0.4 99 0.0 SSE 32 46 17 25 1017.5 1013.7 1.6
29/07:30am 0.4 -7.6 0.3 99 0.0 SSE 32 50 17 27 1017.3 1013.4 1.6
29/07:27am 0.4 -7.2 0.3 99 0.0 SSE 30 50 16 27 1017.3 1013.4 1.6
29/07:00am 0.5 -7.5 0.4 99 0.0 SSE 32 43 17 23 1017.0 1013.1 1.6
29/06:30am 0.1 -6.1 0.0 99 0.0 SSE 22 35 12 19 1016.7 1012.8 1.4
29/06:00am 0.3 -5.5 0.2 99 0.0 SSE 20 33 11 18 1016.6 1012.7 1.4
29/05:37am 0.0 -7.3 -0.1 99 0.0 SSE 28 46 15 25 1016.5 1012.6 1.4
29/05:30am 0.3 -6.6 0.2 99 0.0 SSE 26 43 14 23 1016.6 1012.7 1.4
29/05:00am 0.5 -5.0 0.4 99 0.0 SSE 19 35 10 19 1016.3 1012.4 1.2
29/04:30am 0.3 -5.3 0.2 99 0.0 SSE 19 32 10 17 1016.3 1012.4 1.0
29/04:00am 0.0 -6.6 -0.1 99 0.0 SSE 24 46 13 25 1016.4 1012.5 1.0
29/03:30am 0.0 -4.5 -0.1 99 0.0 SSE 13 20 7 11 1016.8 1013.0 1.0
29/03:00am -0.1 -5.9 -0.2 99 0.0 SSE 20 28 11 15 1017.2 1013.3 1.0
29/02:30am -0.3 -5.2 -0.4 99 0.0 SSE 15 33 8 18 1017.5 1013.7 1.0
29/02:00am -0.2 -5.8 -0.3 99 0.0 SSE 19 33 10 18 1018.0 1014.1 1.0
29/01:30am 0.0 -6.6 -0.1 99 0.0 SSE 24 35 13 19 1018.2 1014.4 1.0
29/01:00am 1.0 -4.6 0.9 99 0.0 S 20 30 11 16 1018.2 1014.4 1.0
29/12:30am 1.4 -4.9 1.3 99 0.0 SSE 24 32 13 17 1018.6 1014.7 1.0
29/12:00am 1.5 -3.9 1.4 99 0.0 SSE 19 33 10 18 1018.4 1014.6 1.0
 
Date/Time
EDT
Tmp

°C
App
Tmp
°C
Dew
Point
°C
Rel
Hum
%
Delta-T

°C
Wind Press
QNH
hPa
Press
MSL
hPa
Rain
since
9 am
mm
Dir
 
Spd
km/h
Gust
km/h
Spd
kts
Gust
kts
28/11:30pm 1.4 -3.6 1.3 99 0.0 SSE 17 30 9 16 1018.8 1015.0 1.0
28/11:00pm 1.3 -5.8 1.2 99 0.0 SSE 28 41 15 22 1019.1 1015.3 1.0
28/10:30pm 2.1 -3.2 2.0 99 0.0 SSE 19 30 10 16 1019.4 1015.5 1.0
28/10:00pm 2.5 -2.9 2.4 99 0.0 SSE 20 33 11 18 1019.2 1015.4 1.0
28/09:30pm 3.0 -1.0 2.9 99 0.0 SSE 13 22 7 12 1019.2 1015.4 0.8
28/09:00pm 3.2 -2.1 3.1 99 0.0 SSE 20 35 11 19 1019.0 1015.2 0.8
28/08:30pm 3.7 -0.5 3.6 99 0.0 SSE 15 26 8 14 1018.8 1015.0 0.8
28/08:00pm 3.5 -0.8 3.4 99 0.0 SSE 15 24 8 13 1018.4 1014.6 0.8
28/07:30pm 3.4 -2.6 3.3 99 0.0 SSE 24 33 13 18 1018.7 1014.8 0.8
28/07:00pm 3.6 -1.6 3.5 99 0.0 SSE 20 28 11 15 1018.4 1014.6 0.8
28/06:30pm 4.1 -0.8 4.0 99 0.0 SSE 19 30 10 16 1018.3 1014.5 0.8
28/06:00pm 4.1 -1.0 4.0 99 0.0 SSE 20 30 11 16 1018.2 1014.4 0.8
28/05:30pm 4.8 0.0 4.7 99 0.0 S 19 26 10 14 1018.3 1014.5 0.8
28/05:00pm 4.8 1.1 4.7 99 0.0 SSE 13 20 7 11 1018.3 1014.5 0.8
28/04:30pm 4.0 0.2 3.9 99 0.0 SSE 13 20 7 11 1018.7 1014.8 0.8
28/04:00pm 4.5 1.6 4.4 99 0.0 SSE 9 15 5 8 1018.8 1015.0 0.6
28/03:30pm 4.4 -0.5 4.3 99 0.0 SSE 19 32 10 17 1018.8 1015.0 0.2
28/03:00pm 4.1 -1.4 4.0 99 0.0 SSE 22 30 12 16 1018.8 1015.0 0.2
28/02:30pm 4.5 -1.7 4.4 99 0.0 SSE 26 37 14 20 1018.8 1015.0 0.2
28/02:00pm 6.9 1.9 4.7 86 1.0 SSE 20 30 11 16 1018.2 1014.4 0.0
28/01:30pm 9.1 5.1 5.1 76 1.9 SSE 15 26 8 14 1018.3 1014.5 0.0
28/01:00pm 7.1 3.6 5.3 88 0.9 ESE 13 19 7 10 1018.3 1014.5 0.0
28/12:30pm 7.3 3.6 6.2 93 0.5 SSE 15 20 8 11 1018.7 1014.8 0.0
28/12:00pm 5.0 0.5 4.0 93 0.5 SSE 17 26 9 14 1019.0 1015.2 0.0
28/11:30am 5.9 2.5 5.8 99 0.0 SE 13 20 7 11 1018.9 1015.1 0.0
28/11:00am 6.3 3.0 6.2 99 0.0 ESE 13 22 7 12 1018.9 1015.1 0.0
28/10:30am 5.7 2.2 5.6 99 0.0 ESE 13 19 7 10 1018.9 1015.1 0.0
28/10:00am 5.2 2.0 5.1 99 0.0 SSE 11 19 6 10 1018.8 1015.0 0.0
28/09:30am 4.6 1.7 4.5 99 0.0 SE 9 19 5 10 1018.7 1014.8 0.0
28/09:00am 4.3 0.9 4.2 99 0.0 ESE 11 19 6 10 1018.6 1014.7 5.8
28/08:30am 4.3 0.9 4.2 99 0.0 ESE 11 19 6 10 1018.4 1014.6 5.8
28/08:00am 4.5 1.9 4.4 99 0.0 ESE 7 11 4 6 1018.2 1014.4 5.8
28/07:30am 4.2 1.2 4.1 99 0.0 E 9 11 5 6 1017.8 1013.9 5.8
28/07:00am 4.3 1.7 4.2 99 0.0 SE 7 13 4 7 1017.5 1013.7 5.8
28/06:30am 4.5 1.9 4.4 99 0.0 SSE 7 15 4 8 1017.3 1013.4 5.2
28/06:00am 4.9 2.0 4.8 99 0.0 E 9 15 5 8 1017.0 1013.1 4.8
28/05:30am 4.9 2.0 4.8 99 0.0 ENE 9 13 5 7 1016.7 1012.8 4.4
28/05:00am 5.0 2.1 4.9 99 0.0 ENE 9 13 5 7 1016.5 1012.6 4.2
28/04:30am 5.0 2.1 4.9 99 0.0 E 9 15 5 8 1016.4 1012.5 4.2
28/04:00am 5.1 2.3 5.0 99 0.0 ENE 9 13 5 7 1016.4 1012.5 4.0
28/03:30am 5.2 2.0 5.1 99 0.0 ENE 11 17 6 9 1016.5 1012.6 4.0
28/03:00am 5.2 2.0 5.1 99 0.0 ENE 11 15 6 8 1016.8 1013.0 4.0
28/02:30am 5.3 2.5 5.2 99 0.0 ENE 9 15 5 8 1017.0 1013.1 3.8
28/02:00am 5.4 2.2 5.3 99 0.0 ENE 11 17 6 9 1017.2 1013.3 3.6
28/01:30am 5.5 1.6 5.4 99 0.0 ENE 15 19 8 10 1017.3 1013.4 3.6
28/01:00am 5.6 2.9 5.5 99 0.0 ENE 9 15 5 8 1017.4 1013.5 3.6
28/12:30am 5.6 2.5 5.5 99 0.0 ENE 11 17 6 9 1017.5 1013.7 3.4
28/12:00am 5.6 2.5 5.5 99 0.0 E 11 17 6 9 1017.5 1013.7 3.2
 
Date/Time
EDT
Tmp

°C
App
Tmp
°C
Dew
Point
°C
Rel
Hum
%
Delta-T

°C
Wind Press
QNH
hPa
Press
MSL
hPa
Rain
since
9 am
mm
Dir
 
Spd
km/h
Gust
km/h
Spd
kts
Gust
kts
27/11:30pm 5.7 2.2 5.6 99 0.0 ENE 13 19 7 10 1017.5 1013.7 3.0
27/11:00pm 5.7 1.9 5.6 99 0.0 ENE 15 22 8 12 1017.4 1013.5 2.8
27/10:30pm 5.8 2.0 5.7 99 0.0 ENE 15 24 8 13 1017.5 1013.7 2.6
27/10:00pm 6.0 2.6 5.9 99 0.0 E 13 20 7 11 1017.5 1013.7 2.4
27/09:30pm 6.2 3.2 6.1 99 0.0 ESE 11 19 6 10 1017.4 1013.5 2.2
27/09:00pm 6.1 2.7 6.0 99 0.0 ESE 13 19 7 10 1017.1 1013.2 2.0

Latest Capital City Observations: Canberra | Sydney | Melbourne | Brisbane | Adelaide | Perth | Hobart | Darwin

Other Formats:

Comma delimited format used in spreadsheet applications
http://www.bom.gov.au/fwo/IDN60903/IDN60903.95909.axf

JavaScript Object Notation format (JSON) in row-major order
http://www.bom.gov.au/fwo/IDN60903/IDN60903.95909.json